User: anonymous   Login
Location: Unspecified
(0.0000°N, 0.0000°E)
Time: 06:46:28
(UTC+00:00)
Language:

FAISAT-2V - Orbit

View from above orbital plane
View from above orbital plane
View from above satellite
View from above satellite

Ground track
Ground track

The orbit data is extracted from the following two-line orbital elements,

1 24954U 97052B   17087.82655138 +.00000067 +00000-0 +48926-4 0  9994
2 24954 082.9258 347.3084 0040791 063.2581 003.7018 13.79943959982530
Epoch (UTC): 28 March 2017 19:50:14
Eccentricity: 0.0040791
inclination: 82.9258°
perigee height: 934 km
apogee height: 994 km
right ascension of ascending node: 347.3084°
argument of perigee: 63.2581°
revolutions per day: 13.79943959
mean anomaly at epoch: 3.7018°
orbit number at epoch: 98253

The dashed part of the orbit path shows where the satellite is in the earth's shadow,  

DLR